Location: Vale
(35.4830°N, 81.3830°W)
Time: 17:04:38
(UTC-04:00)

Amateur Radio Satellites - All Passes

Search period start: 24 April 2017 16:34
Search period end: 25 April 2017 16:34
Location: Vale, 35.4830°N, 81.3830°W

Satellite Date Start Highest point End Downlink Frequencies (MHz)
Time Altitude Azimuth
YUBILEINY 24 Apr 16:49:06 16:57:55 85° 85° (E) 17:06:44 435.215
CUBESAT XI-V 24 Apr 16:49:21 16:50:20 11° 91° (E) 16:51:19 437.345
Tancredo 1 24 Apr 16:56:01 16:59:08 86° 45° (NE) 17:02:13 437.200
ISS 24 Apr 16:58:31 17:01:45 67° 41° (NE) 17:04:59 437.550
SO-50 24 Apr 17:11:06 17:15:37 76° 241° (WSW) 17:20:06 436.795
DOVE 4 24 Apr 17:14:38 17:17:07 13° 64° (ENE) 17:19:36 437.250
BEESAT 24 Apr 17:24:21 17:28:05 23° 292° (WNW) 17:31:48 436.000
RS-15 24 Apr 17:31:08 17:43:21 68° 57° (ENE) 17:54:55 29.354- 29.394
MOZHAYETS 4 24 Apr 17:39:36 17:43:37 30° 289° (WNW) 17:47:38
XW-2D 24 Apr 17:56:11 17:58:24 15° 69° (ENE) 18:00:37 145.860 - 145.880
XW-2B 24 Apr 18:02:41 18:05:14 18° 70° (ENE) 18:07:47 145.730 - 145.750
AO-7 24 Apr 18:03:25 18:08:09 16° 267° (W) 18:12:55 .
KKS-1 24 Apr 18:09:25 18:13:52 86° 286° (WNW) 18:18:17 437.445
LilacSat-2 24 Apr 18:10:13 18:13:15 23° 71° (ENE) 18:16:17 437.200
XW-2C 24 Apr 18:13:52 18:16:56 25° 72° (ENE) 18:20:02 145.795 - 145.815
KAITUO 1B 24 Apr 18:17:52 18:20:42 21° 71° (ENE) 18:23:34 145.475/437.950
CUBESAT XI-V 24 Apr 18:23:23 18:28:04 64° 285° (WNW) 18:32:42 437.345
XW-2F 24 Apr 18:40:36 18:44:14 54° 76° (ENE) 18:47:53 145.980 - 146.000
STARS 24 Apr 18:48:08 18:52:30 74° 284° (WNW) 18:56:50 437.465
YUBILEINY 24 Apr 18:48:35 18:53:30 17° 281° (W) 18:58:25 435.215
DOVE 4 24 Apr 18:48:52 18:54:08 71° 259° (W) 18:59:25 437.250
JUGNU 24 Apr 18:49:54 18:52:43 14° 169° (S) 18:55:34 437.505
CUTE-I 24 Apr 18:56:11 19:01:31 81° 76° (ENE) 19:06:53 437.470
NUDT-PHONESAT 24 Apr 18:59:30 19:03:09 82° 80° (E) 19:06:51 437.300
XW-2D 24 Apr 19:29:04 19:32:20 28° 263° (W) 19:35:36 145.860 - 145.880
NO-84 24 Apr 19:31:58 19:33:55 14° 124° (SE) 19:35:47 435.350 FM
XW-2B 24 Apr 19:36:10 19:39:13 24° 264° (W) 19:42:18 145.730 - 145.750
CUTE 1.7 + AOD 2 24 Apr 19:36:45 19:40:27 31° 72° (ENE) 19:44:12 437.475
STRAND 1 24 Apr 19:39:07 19:41:45 14° 92° (E) 19:44:23 437.568
HO-68 24 Apr 19:42:04 19:49:00 57° 70° (ENE) 19:55:58 435.675
AAUSAT CUBESAT 2 24 Apr 19:44:10 19:45:02 11° 65° (ENE) 19:45:54 437.432
LilacSat-2 24 Apr 19:44:50 19:47:27 18° 265° (W) 19:50:05 437.200
RS-15 24 Apr 19:44:55 19:54:48 32° 257° (WSW) 20:04:20 29.354- 29.394
XW-2A 24 Apr 19:47:25 19:50:36 41° 75° (ENE) 19:53:47 145.665 - 145.685
XW-2C 24 Apr 19:48:38 19:51:06 17° 266° (W) 19:53:35 145.795 - 145.815
KAITUO 1B 24 Apr 19:51:57 19:54:37 19° 265° (W) 19:57:18 145.475/437.950
SEEDS 24 Apr 20:01:11 20:05:02 38° 73° (ENE) 20:08:56 437.485
UWE-3 24 Apr 20:10:07 20:13:17 20° 70° (ENE) 20:16:24 435.000/436.395/437.385
CUBEBUG 2 24 Apr 20:17:09 20:21:20 42° 74° (ENE) 20:25:24 437.445
JUGNU 24 Apr 20:37:12 20:40:59 17° 180° (S) 20:44:46 437.505
M-CUBED/EXP-1 PRIME 24 Apr 20:40:16 20:44:20 49° 104° (ESE) 20:48:03 437.505
NO-84 24 Apr 21:07:37 21:11:14 48° 315° (NW) 21:14:32 435.350 FM
ZACube-1 24 Apr 21:09:46 21:13:55 56° 75° (ENE) 21:18:01 437.345
CUTE 1.7 + AOD 2 24 Apr 21:13:29 21:16:19 18° 266° (W) 21:19:10 437.475
AAUSAT CUBESAT 2 24 Apr 21:15:55 21:19:57 54° 260° (W) 21:24:02 437.432
STRAND 1 24 Apr 21:16:14 21:21:14 56° 286° (WNW) 21:26:12 437.568
AO-73 24 Apr 21:18:01 21:22:11 64° 76° (ENE) 21:26:18 145.935
HO-68 24 Apr 21:31:31 21:37:00 24° 265° (W) 21:42:32 435.675
Oscar 11 24 Apr 21:36:15 21:40:31 88° 85° (E) 21:44:51 .
SEEDS 24 Apr 21:38:37 21:40:51 14° 267° (W) 21:43:05 437.485
O/OREOS (USA 219) 24 Apr 21:45:41 21:50:16 81° 253° (WSW) 21:54:48 437.305
UWE-3 24 Apr 21:45:49 21:49:33 28° 263° (W) 21:53:14 435.000/436.395/437.385
CUBEBUG 2 24 Apr 21:55:47 21:58:04 14° 267° (W) 22:00:21 437.445
SRMSAT 24 Apr 21:55:49 21:59:10 15° 172° (S) 22:02:31 437.500
OBJECT BX 24 Apr 22:01:47 22:04:59 30° 73° (ENE) 22:08:13 145.990 - 145.960
M-CUBED/EXP-1 PRIME 24 Apr 22:16:28 22:18:11 12° 301° (WNW) 22:19:53 437.505
DELFI C3 24 Apr 22:20:29 22:24:26 80° 78° (ENE) 22:28:26 145.870
FO-29 24 Apr 22:24:28 22:25:57 11° 92° (E) 22:27:27 435.910
JUGNU 24 Apr 22:26:14 22:29:15 14° 190° (S) 22:32:15 437.505
TIGRISAT 24 Apr 22:44:44 22:48:02 21° 96° (E) 22:51:22 435.000
AO-85 24 Apr 22:50:57 22:54:53 55° 59° (ENE) 22:59:00 145.980
UNISAT 6 24 Apr 23:04:40 23:08:43 40° 99° (E) 23:12:48 437.425
BEESAT 3 24 Apr 23:06:51 23:09:06 14° 49° (NE) 23:11:20 437.485
PRISM 24 Apr 23:12:52 23:17:02 89° 319° (NW) 23:21:09 437.425
LO-87 24 Apr 23:13:01 23:16:14 30° 73° (ENE) 23:19:26 145.935 - 145.965
OBJECT BX 24 Apr 23:37:02 23:38:44 13° 267° (W) 23:40:25 145.990 - 145.960
SRMSAT 24 Apr 23:43:49 23:47:35 17° 182° (S) 23:51:21 437.500
FO-29 25 Apr 00:06:15 00:11:26 68° 285° (WNW) 00:16:56 435.910
ESTCUBE 1 25 Apr 00:15:07 00:19:36 83° 255° (WSW) 00:24:08 437.505/2401.250
NANOSAT C BR1 25 Apr 00:15:35 00:17:51 14° 93° (E) 00:20:07 145.865
TIGRISAT 25 Apr 00:21:06 00:24:40 26° 289° (WNW) 00:28:16 435.000
SPROUT 25 Apr 00:21:38 00:25:11 26° 71° (ENE) 00:28:46 437.525
AO-85 25 Apr 00:34:14 00:34:50 10° 251° (WSW) 00:35:26 145.980
BEESAT 2 25 Apr 00:36:54 00:40:51 48° 58° (ENE) 00:44:44 435.950
VELOX 1 25 Apr 00:37:56 00:42:12 46° 73° (ENE) 00:46:28 145.980
EO-79 25 Apr 00:40:42 00:44:28 32° 98° (E) 00:48:13 145.935-145.965
UNISAT 6 25 Apr 00:42:42 00:45:04 15° 293° (WNW) 00:47:28 437.425
BEESAT 3 25 Apr 00:43:05 00:46:56 47° 245° (WSW) 00:50:44 437.485
DUCHIFAT 1 25 Apr 00:45:24 00:49:03 29° 97° (E) 00:52:41 145.980
LO-87 25 Apr 00:47:54 00:49:42 13° 266° (W) 00:51:31 145.935 - 145.965
UKube-1 25 Apr 01:08:58 01:12:32 25° 70° (ENE) 01:16:06 .
AIST 2D 25 Apr 01:09:01 01:12:20 41° 285° (WNW) 01:15:40 435.315
POLYITAN 1 25 Apr 01:18:57 01:23:09 83° 281° (W) 01:27:20 437.675
QB50P2 25 Apr 01:25:29 01:29:38 62° 285° (WNW) 01:33:47 145.880/145.840
SRMSAT 25 Apr 01:33:39 01:35:59 12° 193° (SSW) 01:38:20 437.500
50 SAT 25 Apr 01:33:54 01:37:19 57° 260° (W) 01:40:46 437.505
DX 1 25 Apr 01:36:37 01:40:59 82° 78° (ENE) 01:45:23 434.975-435.025
Oscar 19 25 Apr 01:44:06 01:46:58 15° 92° (E) 01:49:48 437.125/150
NANOSAT C BR1 25 Apr 01:49:49 01:53:41 37° 287° (WNW) 01:57:32 145.865
BUGSAT 1 25 Apr 01:55:33 01:59:31 62° 100° (E) 02:03:29 437.445
SPROUT 25 Apr 01:57:43 02:01:01 22° 265° (W) 02:04:21 437.525
PCSat 25 Apr 02:05:24 02:08:22 15° 104° (ESE) 02:11:21 145.827
VELOX 1 25 Apr 02:16:38 02:18:50 13° 267° (W) 02:21:03 145.980
BEESAT 2 25 Apr 02:16:39 02:18:08 12° 252° (WSW) 02:19:37 435.950
EO-79 25 Apr 02:17:10 02:19:57 18° 292° (WNW) 02:22:44 145.935-145.965
DUCHIFAT 1 25 Apr 02:21:34 02:24:29 19° 291° (WNW) 02:27:24 145.980
UKube-1 25 Apr 02:45:00 02:48:27 23° 264° (W) 02:51:56 .
BEESAT 25 Apr 02:49:55 02:53:51 26° 69° (ENE) 02:57:46 436.000
MOZHAYETS 4 25 Apr 03:02:50 03:05:26 15° 66° (ENE) 03:08:04
Gurwin Techsat 1B 25 Apr 03:06:35 03:11:50 58° 101° (E) 03:17:03 435.225
Oscar 19 25 Apr 03:21:29 03:26:35 56° 287° (WNW) 03:31:38 437.125/150
ITUPSAT 1 25 Apr 03:28:13 03:32:55 67° 75° (ENE) 03:37:39 437.325
NO-84 25 Apr 03:44:44 03:46:49 18° 38° (NE) 03:48:53 435.350 FM
PCSat 25 Apr 03:45:50 03:51:10 61° 299° (WNW) 03:56:33 145.827
YUBILEINY 25 Apr 03:53:21 03:58:47 19° 80° (E) 04:04:11 435.215
AO-7 25 Apr 04:11:51 04:19:15 35° 99° (E) 04:26:37 .
BEESAT 25 Apr 04:27:28 04:31:29 27° 263° (W) 04:35:31 436.000
MOZHAYETS 4 25 Apr 04:37:51 04:42:12 44° 261° (W) 04:46:34
ITAMSAT 1 25 Apr 04:42:46 04:47:57 72° 102° (ESE) 04:53:06 435.822/435.867
Gurwin Techsat 1B 25 Apr 04:48:08 04:51:14 16° 296° (WNW) 04:54:21 435.225
KKS-1 25 Apr 05:04:04 05:08:27 59° 74° (ENE) 05:12:51 437.445
ITUPSAT 1 25 Apr 05:10:49 05:11:08 10° 269° (W) 05:11:28 437.325
NO-84 25 Apr 05:21:59 05:24:15 22° 233° (SW) 05:26:32 435.350 FM
CUBESAT XI-V 25 Apr 05:23:10 05:27:47 87° 83° (E) 05:32:29 437.345
STARS 25 Apr 05:41:16 05:45:38 65° 75° (ENE) 05:50:00 437.465
YUBILEINY 25 Apr 05:45:48 05:54:29 77° 277° (W) 06:03:13 435.215
AO-7 25 Apr 06:04:15 06:12:04 48° 295° (WNW) 06:19:53 .
ITAMSAT 1 25 Apr 06:24:39 06:26:45 12° 298° (WNW) 06:28:51 435.822/435.867
KKS-1 25 Apr 06:44:29 06:45:19 10° 268° (W) 06:46:09 437.445
DOVE 4 25 Apr 06:51:44 06:56:03 39° 97° (E) 07:00:07 437.250
STRAND 1 25 Apr 06:52:15 06:55:17 16° 65° (ENE) 06:58:20 437.568
XW-2D 25 Apr 07:04:04 07:07:33 32° 98° (E) 07:10:59 145.860 - 145.880
XW-2B 25 Apr 07:10:52 07:14:26 38° 98° (E) 07:18:01 145.730 - 145.750
CUTE-I 25 Apr 07:16:31 07:21:31 40° 99° (E) 07:26:28 437.470
HO-68 25 Apr 07:17:47 07:18:53 10° 89° (E) 07:19:58 435.675
LilacSat-2 25 Apr 07:19:31 07:23:17 55° 100° (E) 07:27:03 437.200
SO-50 25 Apr 07:22:00 07:26:37 72° 118° (ESE) 07:31:12 436.795
M-CUBED/EXP-1 PRIME 25 Apr 07:22:07 07:26:23 41° 68° (ENE) 07:30:46 437.505
XW-2C 25 Apr 07:22:32 07:26:17 57° 100° (E) 07:30:03 145.795 - 145.815
KAITUO 1B 25 Apr 07:24:50 07:28:29 46° 99° (E) 07:32:07 145.475/437.950
RS-15 25 Apr 07:49:02 08:00:36 59° 111° (ESE) 08:12:33 29.354- 29.394
YUBILEINY 25 Apr 07:49:19 07:52:45 13° 297° (WNW) 07:56:12 435.215
XW-2F 25 Apr 07:49:27 07:53:12 62° 284° (WNW) 07:56:57 145.980 - 146.000
NUDT-PHONESAT 25 Apr 08:06:39 08:10:12 44° 285° (WNW) 08:13:45 437.300
CUBEBUG 2 25 Apr 08:14:07 08:14:10 10° 92° (E) 08:14:13 437.445
STRAND 1 25 Apr 08:29:00 08:33:59 54° 259° (W) 08:38:59 437.568
DOVE 4 25 Apr 08:30:27 08:33:20 17° 294° (WNW) 08:36:08 437.250
XW-2D 25 Apr 08:39:21 08:41:25 14° 291° (WNW) 08:43:29 145.860 - 145.880
XW-2A 25 Apr 08:44:29 08:47:50 71° 101° (E) 08:51:10 145.665 - 145.685
XW-2B 25 Apr 08:46:41 08:48:15 12° 292° (WNW) 08:49:48 145.730 - 145.750
CUTE-I 25 Apr 08:57:15 09:01:15 22° 294° (WNW) 09:05:14 437.470
M-CUBED/EXP-1 PRIME 25 Apr 08:57:47 09:00:54 18° 262° (W) 09:04:04 437.505
CUTE 1.7 + AOD 2 25 Apr 08:59:31 09:03:49 84° 284° (WNW) 09:08:06 437.475
HO-68 25 Apr 09:00:16 09:07:30 79° 105° (ESE) 09:14:42 435.675
AAUSAT CUBESAT 2 25 Apr 09:01:13 09:04:48 27° 96° (E) 09:08:23 437.432
ZACube-1 25 Apr 09:02:21 09:04:27 13° 93° (E) 09:06:32 437.345
SO-50 25 Apr 09:05:20 09:07:33 13° 314° (NW) 09:09:45 436.795
AO-73 25 Apr 09:09:59 09:12:25 15° 94° (E) 09:14:52 145.935
SEEDS 25 Apr 09:22:58 09:27:12 69° 284° (WNW) 09:31:25 437.485
Oscar 11 25 Apr 09:27:10 09:30:24 20° 95° (E) 09:33:37 .
Tancredo 1 25 Apr 09:27:49 09:30:52 61° 319° (NW) 09:33:57 437.200
ISS 25 Apr 09:36:03 09:39:17 69° 319° (NW) 09:42:32 437.550
UWE-3 25 Apr 09:37:20 09:41:31 67° 101° (ESE) 09:45:45 435.000/436.395/437.385
TIGRISAT 25 Apr 09:41:37 09:43:55 14° 67° (ENE) 09:46:12 435.000
CUBEBUG 2 25 Apr 09:46:59 09:51:01 52° 285° (WNW) 09:55:07 437.445
PRISM 25 Apr 09:58:53 10:02:46 40° 73° (ENE) 10:06:40 437.425
UNISAT 6 25 Apr 10:00:50 10:04:27 25° 71° (ENE) 10:08:01 437.425
RS-15 25 Apr 10:02:18 10:13:32 42° 313° (NW) 10:25:06 29.354- 29.394
DELFI C3 25 Apr 10:02:20 10:04:04 12° 92° (E) 10:05:48 145.870
FO-29 25 Apr 10:15:08 10:20:58 36° 71° (ENE) 10:26:13 435.910
O/OREOS (USA 219) 25 Apr 10:17:18 10:20:13 17° 100° (E) 10:23:10 437.305
ZACube-1 25 Apr 10:36:53 10:40:51 41° 286° (WNW) 10:44:53 437.345
AAUSAT CUBESAT 2 25 Apr 10:36:58 10:40:03 20° 291° (WNW) 10:43:08 437.432
AO-73 25 Apr 10:44:51 10:48:44 37° 287° (WNW) 10:52:41 145.935
HO-68 25 Apr 10:49:49 10:54:23 18° 301° (WNW) 10:58:57 435.675
Oscar 11 25 Apr 11:02:44 11:06:30 29° 289° (WNW) 11:10:16 .
OBJECT BX 25 Apr 11:06:30 11:10:08 64° 100° (E) 11:13:45 145.990 - 145.960
ISS 25 Apr 11:15:18 11:16:16 11° 336° (NNW) 11:17:14 437.550
TIGRISAT 25 Apr 11:15:59 11:20:13 44° 261° (W) 11:24:23 435.000
EO-79 25 Apr 11:30:56 11:33:41 17° 68° (ENE) 11:36:27 145.935-145.965
DUCHIFAT 1 25 Apr 11:35:13 11:37:42 16° 67° (ENE) 11:40:12 145.980
DELFI C3 25 Apr 11:35:16 11:39:00 39° 287° (WNW) 11:42:43 145.870
PRISM 25 Apr 11:36:11 11:38:12 13° 267° (W) 11:40:13 437.425
UNISAT 6 25 Apr 11:37:30 11:41:04 24° 264° (W) 11:44:35 437.425
AIST 2D 25 Apr 11:40:13 11:43:25 36° 74° (ENE) 11:46:38 435.315
O/OREOS (USA 219) 25 Apr 11:55:00 11:59:16 38° 295° (WNW) 12:03:35 437.305
FO-29 25 Apr 12:00:18 12:05:59 30° 262° (W) 12:11:08 435.910
POLYITAN 1 25 Apr 12:08:12 12:12:15 47° 74° (ENE) 12:16:18 437.675
ESTCUBE 1 25 Apr 12:11:02 12:14:50 26° 96° (E) 12:18:36 437.505/2401.250
QB50P2 25 Apr 12:14:34 12:18:45 62° 75° (ENE) 12:22:55 145.880/145.840
LO-87 25 Apr 12:15:49 12:19:20 57° 100° (E) 12:22:48 145.935 - 145.965
RS-15 25 Apr 12:23:53 12:30:52 16° 344° (NNW) 12:37:53 29.354- 29.394
VELOX 1 25 Apr 12:33:37 12:34:38 11° 92° (E) 12:35:37 145.980
PCSat 25 Apr 12:36:40 12:42:00 55° 60° (ENE) 12:47:18 145.827
NANOSAT C BR1 25 Apr 12:38:05 12:42:17 81° 256° (WSW) 12:46:31 145.865
BUGSAT 1 25 Apr 12:42:17 12:45:52 28° 71° (ENE) 12:49:24 437.445
Oscar 19 25 Apr 12:58:09 13:01:23 17° 65° (ENE) 13:04:37 437.125/150
AO-85 25 Apr 13:02:33 13:06:37 37° 115° (ESE) 13:10:28 145.980
50 SAT 25 Apr 13:02:50 13:03:23 10° 93° (E) 13:03:57 437.505
EO-79 25 Apr 13:05:20 13:09:10 33° 262° (W) 13:13:00 145.935-145.965
DUCHIFAT 1 25 Apr 13:09:08 13:13:02 37° 262° (W) 13:16:56 145.980
DX 1 25 Apr 13:28:52 13:31:46 17° 94° (E) 13:34:39 434.975-435.025
SPROUT 25 Apr 13:45:08 13:49:23 78° 103° (ESE) 13:53:36 437.525
POLYITAN 1 25 Apr 13:46:46 13:48:14 12° 268° (W) 13:49:43 437.675
ESTCUBE 1 25 Apr 13:47:47 13:51:30 25° 290° (WNW) 13:55:13 437.505/2401.250
VELOX 1 25 Apr 14:07:02 14:11:23 56° 286° (WNW) 14:15:40 145.980
BUGSAT 1 25 Apr 14:18:12 14:21:11 19° 265° (W) 14:24:09 437.445
PCSat 25 Apr 14:21:30 14:24:53 17° 256° (WSW) 14:28:13 145.827
Gurwin Techsat 1B 25 Apr 14:24:32 14:29:48 69° 75° (ENE) 14:35:06 435.225
BEESAT 2 25 Apr 14:26:27 14:29:02 17° 110° (ESE) 14:31:39 435.950
BEESAT 3 25 Apr 14:29:33 14:33:22 56° 116° (ESE) 14:37:16 437.485
50 SAT 25 Apr 14:33:15 14:36:26 34° 287° (WNW) 14:39:35 437.505
UKube-1 25 Apr 14:33:50 14:38:10 71° 102° (ESE) 14:42:26 .
Oscar 19 25 Apr 14:35:14 14:40:13 52° 260° (W) 14:45:17 437.125/150
RS-15 25 Apr 14:42:46 14:50:44 19° 23° (NNE) 14:58:33 29.354- 29.394
AO-85 25 Apr 14:44:06 14:47:05 18° 308° (NW) 14:49:57 145.980
DX 1 25 Apr 15:04:04 15:08:01 34° 289° (WNW) 15:11:55 434.975-435.025
AO-7 25 Apr 15:07:42 15:15:06 38° 63° (ENE) 15:22:28 .
ITUPSAT 1 25 Apr 15:32:25 15:36:04 22° 95° (E) 15:39:43 437.325
Tancredo 1 25 Apr 15:55:54 15:58:44 32° 36° (NE) 16:01:35 437.200
SO-50 25 Apr 15:56:31 16:00:24 27° 53° (NE) 16:04:15 436.795
ITAMSAT 1 25 Apr 15:57:36 16:02:48 81° 75° (ENE) 16:08:00 435.822/435.867
YUBILEINY 25 Apr 15:59:52 16:08:13 46° 77° (ENE) 16:16:33 435.215
BEESAT 2 25 Apr 16:02:55 16:06:30 33° 305° (NW) 16:10:09 435.950
ISS 25 Apr 16:06:26 16:09:25 33° 36° (NE) 16:12:24 437.550
Gurwin Techsat 1B 25 Apr 16:08:13 16:10:11 12° 269° (W) 16:12:10 435.225
BEESAT 3 25 Apr 16:09:36 16:11:18 12° 313° (NW) 16:13:01 437.485
